Retour au catalogue

COSMOS 2251 DEB

ActifLEO
NORAD 36614·DEBRIS·🇷🇺 Russia

Lancé Jun 16, 1993 depuis Plesetsk Cosmodrome

Loading…

Prochains Passages (prochaines 24 heures)

TLE

FraisSource: Space-Track

Époque: Sep 13, 2026, 01:08 UTC

1 36614U 93036BEC 26256.04772946  .00002757  00000-0  54318-3 0  9996
2 36614  74.0241   9.0860 0015080   9.0807 351.0629 14.62965049696217

Suivez COSMOS 2251 DEB en temps réel avec AllMySat

Download on the App Store